Regional Weather Roundup
Issued by NWS Newport/Morehead, NC

Current Version | Previous Version | Text Only | Print | Product List | Glossary On
Versions: 1 2 3 4 5 6 7 8 9 10 11 12 13 14 15 16 17 18 19 20 21 22 23 24 25 26 27 28 29 30 31 32 33 34 35 36 37 38 39 40 41 42 43 44 45 46 47 48 49 50
000 ASUS42 KMHX 190225 RWRMHX WEATHER ROUNDUP FOR EASTERN NORTH CAROLINA NATIONAL WEATHER SERVICE NEWPORT/MOREHEAD CITY NC 900 PM EST THU JAN 18 2018 NOTE: "FAIR" INDICATES FEW OR NO CLOUDS BELOW 12,000 FEET WITH NO SIGNIFICANT WEATHER AND/OR OBSTRUCTIONS TO VISIBILITY NCZ015>017-031-032-045>047-102-103-190300- NORTH COAST CITY SKY/WX TMP DP RH WIND PRES REMARKS EDENTON FAIR 33 24 68 W9 30.21R ELIZABETH CITY FAIR 29 23 78 W8 30.19R KITTY HAWK FAIR 31 23 72 MISG 30.17R MANTEO FAIR 31 21 67 W9 30.19R $$ NCZ045>047-081-094-103-104-190300- CENTRAL COAST CITY SKY/WX TMP DP RH WIND PRES REMARKS FRISCO FAIR 35 26 69 W9 30.20R $$ NCZ095-097-098-100-101-190300- SOUTHERN COAST CITY SKY/WX TMP DP RH WIND PRES REMARKS BEAUFORT FAIR 32 20 61 W8 30.25R CEDAR ISLAND NOT AVBL JACKSONVILLE FAIR 29 19 66 NW5 30.25S PINEY ISLAND NOT AVBL WILMINGTON FAIR 30 19 63 W6 30.27R $$ NCZ011>013-027>030-043-044-078>080-089-090>093-098-190300- COASTAL PLAIN CITY SKY/WX TMP DP RH WIND PRES REMARKS AHOSKIE FAIR 25 20 82 CALM 30.21R CLINTON FAIR 28 22 75 CALM 30.27S ELIZABETHTOWN NOT AVBL GOLDSBORO FAIR 30 21 70 W9 30.22S GREENVILLE FAIR 32 21 64 W6 30.24S HAVELOCK NOT AVBL KENANSVILLE FAIR 28 19 69 W6 30.25S KINSTON FAIR 30 21 69 SW5 30.25S NEW BERN FAIR 29 19 66 W7 30.25R RICHLANDS FAIR 28 20 71 SW3 30.26R ROCKY MOUNT NOT AVBL WASHINGTON FAIR 30 21 69 W7 30.24R WHITEVILLE FAIR 30 22 73 CALM 30.27S $$ AMZ130-135-150-152-154-156-158-170-250-252-270-ANZ085-086-088-633-658-670-190300- MARINE OBSERVATIONS STATION/POSITION TIME TEMP WIND PRES WAVE SWELL AIR SEA DIR/SP/G HT/PER HT/PER (UTC) (F) (DEG/KT/KT) (MB) (FT/S) (FT/S) CHESAPEAKE LIGHT NOT AVBL 64 E VA BEACH 0150 41 60 280/ 21/ 25 1020.7 7/ 5 3/ 9 DUCK 0200 32 39 260/ 13/ 16 1021.6 2 E DUCK 0130 39 N/A 3/10 2/11 OREGON INLET 0200 32 36 260/ 8/ 15 1022.2 13E OREGON INLT 0148 42 N/A 6/ 8 5/ 8 HATTERAS CG 0200 35 41 280/ 16/ 19 1022.5 DIAMOND BUOY 0210 40 44 280/ 17/ 21 1022.9 CAPE LOOKOUT 0200 290/ 18/ 22 1024.1 BEAUFORT LAB 0200 33 44 280/ 3/ 8 1024.2 30 SE NEW RVR IN 0108 41 57 310/ 12/ 17 1024.1 30 SE NEW RVR IN 0200 57 N/A 4/12 2/12 27 SE WRIGHTSVLE 0108 42 60 300/ 16/ 23 1024.4 5 SE WRIGHTSVLE 0208 38 46 280/ 10/ 12 1024.4 225 S CAPE HAT 0150 53 70 350/ 10/ 16 1023.4 11/10 11/10 41 SE CHARLESTON 0210 48 330/ 12/ 16 1026.1 $$

USA.gov is the U.S. government's official web portal to all federal, state and local government web resources and services.